Regional Weather Roundup
Issued by NWS Goodland, KS

Home | Current Version | Previous Version | Graphics & Text | Print | Product List | Glossary On
Versions: 1 2 3 4 5 6 7 8 9 10 11 12 13 14 15 16 17 18 19 20 21 22 23 24 25 26 27 28 29 30 31 32 33 34 35 36 37 38 39 40 41 42 43 44 45 46 47 48 49 50
000
ASUS43 KGLD 171259
RWRGLD

GOODLAND FORECAST AREA HOURLY WEATHER ROUNDUP
NATIONAL WEATHER SERVICE GOODLAND KS
700 AM MDT THU AUG 17 2017

...OFFICIAL OBSERVATIONS...

CITY           SKY/WX    TMP DP  RH WIND       PRES   REMARKS
GOODLAND KS    SUNNY     61  57  87 CALM      30.13S
HILL CITY KS   SUNNY     60  58  92 W7        30.08R
IMPERIAL NEB   SUNNY     54  51  90 W5        30.10R
MCCOOK NEB     SUNNY     58  57  97 W8        30.08R
AKRON CO       CLEAR     59  48  67 S9        30.15R
BURLINGTON CO  MOCLDY    60  57  89 SW12      30.16S
LIMON CO       CLEAR     55  52  89 SE7       30.20S
$$

...UNOFFICIAL OBSERVATIONS...

CITY           SKY/WX    TMP DP  RH WIND       PRES   REMARKS
LENORA KS        N/A     60  32  34 W5          N/A
NORTON KS      SUNNY     55  52  88 SW6       30.07R
TRENTON NEB      N/A     55  32  41 CALM        N/A
KIT CARSON CO    N/A     60  56  86 CALM        N/A
YUMA CO        FAIR      55  52  88 S9        30.13S
$$




USA.gov is the U.S. government's official web portal to all federal, state and local government web resources and services.